| time (UTC) | temp F | wind direction | speed MPH | gust MPH | rain 1hr in | rain 24hr in | rain mn in | humidity % | barometer mb |
| 20260505101552 | 40 | 0 | 0.0 | 1.0 | 0.00 | 0.00 | 0.00 | 94 | 1016.1 |
| 20260505100038 | 40 | 0 | 0.0 | 0.0 | 0.00 | 0.00 | 0.00 | 94 | 1016.2 |
| 20260505094539 | 40 | 0 | 0.0 | 3.0 | 0.00 | 0.00 | 0.00 | 93 | 1016.2 |
| 20260505093044 | 41 | 0 | 0.0 | 0.0 | 0.00 | 0.00 | 0.00 | 93 | 1016.1 |
| 20260505091539 | 41 | 0 | 0.0 | 0.0 | 0.00 | 0.00 | 0.00 | 93 | 1015.9 |
| 20260505090055 | 41 | 0 | 0.0 | 0.0 | 0.00 | 0.00 | 0.00 | 93 | 1015.8 |
| 20260505084550 | 42 | 0 | 0.0 | 0.0 | 0.00 | 0.00 | 0.00 | 93 | 1015.7 |
| 20260505083038 | 42 | 0 | 0.0 | 0.0 | 0.00 | 0.00 | 0.00 | 93 | 1015.7 |
| 20260505081547 | 42 | 0 | 0.0 | 0.0 | 0.00 | 0.00 | 0.00 | 92 | 1015.6 |
| 20260505080042 | 43 | 0 | 0.0 | 0.0 | 0.00 | 0.00 | 0.00 | 92 | 1015.5 |
| 20260505074542 | 43 | 0 | 0.0 | 0.0 | 0.00 | 0.00 | 0.00 | 92 | 1015.4 |
| 20260505073041 | 43 | 0 | 0.0 | 0.0 | 0.00 | 0.00 | 0.00 | 91 | 1015.2 |
| 20260505071537 | 43 | 0 | 0.0 | 1.0 | 0.00 | 0.00 | 0.00 | 91 | 1015.1 |
| 20260505070042 | 44 | 0 | 0.0 | 1.0 | 0.00 | 0.00 | 0.00 | 90 | 1015.3 |
| 20260505064536 | 44 | 0 | 0.0 | 2.0 | 0.00 | 0.00 | 0.00 | 89 | 1015.3 |
| 20260505063039 | 44 | 0 | 0.0 | 0.0 | 0.00 | 0.00 | 0.00 | 89 | 1015.4 |
| 20260505061546 | 45 | 0 | 0.0 | 1.0 | 0.00 | 0.00 | 0.00 | 88 | 1015.5 |
| 20260505060039 | 45 | 0 | 0.0 | 0.0 | 0.00 | 0.00 | 0.00 | 87 | 1015.6 |
| 20260505054541 | 46 | 0 | 0.0 | 2.0 | 0.00 | 0.00 | 0.00 | 87 | 1015.5 |
| 20260505053048 | 46 | 0 | 0.0 | 0.0 | 0.00 | 0.00 | 0.00 | 86 | 1015.6 |
| 20260505051536 | 47 | 0 | 0.0 | 1.0 | 0.00 | 0.00 | 0.00 | 85 | 1015.6 |
| 20260505041535 | 49 | 0 | 0.0 | 2.0 | 0.00 | 0.00 | 0.00 | 81 | 1015.7 |
| 20260505040036 | 49 | 0 | 0.0 | 0.0 | 0.00 | 0.00 | 0.00 | 79 | 1015.7 |
| 20260505034542 | 50 | 0 | 0.0 | 0.0 | 0.00 | 0.00 | 0.00 | 78 | 1015.7 |
| 20260505033101 | 50 | 0 | 0.0 | 0.0 | 0.00 | 0.00 | 0.00 | 77 | 1015.9 |
| 20260505031539 | 51 | 0 | 0.0 | 0.0 | 0.00 | 0.00 | 0.00 | 76 | 1015.9 |
| 20260505030036 | 51 | 0 | 0.0 | 0.0 | 0.00 | 0.00 | 0.00 | 75 | 1015.9 |
| 20260505024536 | 52 | 0 | 0.0 | 0.0 | 0.00 | 0.00 | 0.00 | 73 | 1015.9 |
| 20260505023049 | 53 | 0 | 0.0 | 0.0 | 0.00 | 0.00 | 0.00 | 72 | 1015.9 |
| 20260505021537 | 54 | 0 | 0.0 | 2.0 | 0.00 | 0.00 | 0.00 | 70 | 1015.8 |
| 20260505020038 | 54 | 0 | 0.0 | 1.0 | 0.00 | 0.00 | 0.00 | 67 | 1015.6 |
| 20260505014536 | 55 | 0 | 0.0 | 0.0 | 0.00 | 0.00 | 0.00 | 66 | 1015.6 |
| 20260505013042 | 56 | 0 | 1.0 | 4.0 | 0.00 | 0.00 | 0.00 | 65 | 1015.4 |
| 20260505011541 | 58 | 0 | 0.0 | 2.0 | 0.00 | 0.00 | 0.00 | 59 | 1015.3 |
| 20260505010042 | 59 | 360 | 0.0 | 2.0 | 0.00 | 0.00 | 0.00 | 56 | 1015.2 |
| 20260505004549 | 62 | 360 | 0.0 | 2.0 | 0.00 | 0.00 | 0.00 | 52 | 1015.0 |
| 20260505003038 | 64 | 360 | 1.0 | 5.0 | 0.00 | 0.00 | 0.00 | 44 | 1014.9 |
| 20260505001542 | 65 | 206 | 5.0 | 9.0 | 0.00 | 0.00 | 0.00 | 43 | 1014.9 |
| 20260505000045 | 65 | 240 | 6.0 | 10.0 | 0.00 | 0.00 | 0.00 | 42 | 1014.8 |
| 20260504234603 | 66 | 360 | 7.0 | 14.0 | 0.00 | 0.00 | 0.00 | 40 | 1014.6 |
| 20260504233036 | 67 | 360 | 6.0 | 15.0 | 0.00 | 0.00 | 0.00 | 39 | 1014.5 |
| 20260504231548 | 68 | 360 | 9.0 | 14.0 | 0.00 | 0.00 | 0.00 | 38 | 1014.4 |
| 20260504230043 | 68 | 360 | 8.0 | 17.0 | 0.00 | 0.00 | 0.00 | 39 | 1014.4 |
| 20260504224542 | 70 | 228 | 7.0 | 20.0 | 0.00 | 0.00 | 0.00 | 39 | 1014.3 |
| 20260504223039 | 70 | 227 | 8.0 | 17.0 | 0.00 | 0.00 | 0.00 | 38 | 1014.3 |
| 20260504221535 | 70 | 248 | 14.0 | 23.0 | 0.00 | 0.00 | 0.00 | 37 | 1014.4 |
| 20260504220050 | 71 | 223 | 13.0 | 25.0 | 0.00 | 0.00 | 0.00 | 37 | 1014.3 |
| 20260504214549 | 71 | 226 | 12.0 | 25.0 | 0.00 | 0.00 | 0.00 | 37 | 1014.3 |
| 20260504213048 | 72 | 252 | 10.0 | 19.0 | 0.00 | 0.00 | 0.00 | 36 | 1014.3 |
| 20260504211540 | 72 | 234 | 10.0 | 19.0 | 0.00 | 0.00 | 0.00 | 37 | 1014.4 |
| 20260504210042 | 72 | 232 | 12.0 | 21.0 | 0.00 | 0.00 | 0.00 | 38 | 1014.4 |
| 20260504204619 | 72 | 258 | 11.0 | 20.0 | 0.00 | 0.00 | 0.00 | 38 | 1014.4 |
| 20260504203043 | 72 | 215 | 5.0 | 20.0 | 0.00 | 0.00 | 0.00 | 38 | 1014.4 |
| 20260504201542 | 72 | 213 | 11.0 | 17.0 | 0.00 | 0.00 | 0.00 | 39 | 1014.5 |
| 20260504200042 | 72 | 248 | 11.0 | 20.0 | 0.00 | 0.00 | 0.00 | 38 | 1015.0 |
| 20260504194546 | 73 | 214 | 9.0 | 17.0 | 0.00 | 0.00 | 0.00 | 36 | 1015.1 |
| 20260504193036 | 72 | 221 | 7.0 | 16.0 | 0.00 | 0.00 | 0.00 | 37 | 1015.2 |
| 20260504191535 | 72 | 246 | 6.0 | 12.0 | 0.00 | 0.00 | 0.00 | 35 | 1015.3 |
| 20260504190054 | 71 | 220 | 6.0 | 11.0 | 0.00 | 0.00 | 0.00 | 37 | 1015.5 |
| 20260504184555 | 71 | 360 | 4.0 | 12.0 | 0.00 | 0.00 | 0.00 | 39 | 1015.7 |
| 20260504183037 | 71 | 360 | 3.0 | 11.0 | 0.00 | 0.00 | 0.00 | 37 | 1015.9 |
| 20260504181544 | 72 | 232 | 7.0 | 14.0 | 0.00 | 0.00 | 0.00 | 36 | 1016.1 |
| 20260504180036 | 72 | 190 | 6.0 | 13.0 | 0.00 | 0.00 | 0.00 | 36 | 1016.0 |
| 20260504174545 | 69 | 243 | 5.0 | 14.0 | 0.00 | 0.00 | 0.00 | 38 | 1016.1 |
| 20260504173036 | 68 | 41 | 3.0 | 11.0 | 0.00 | 0.00 | 0.00 | 38 | 1016.0 |
| 20260504171543 | 67 | 67 | 9.0 | 15.0 | 0.00 | 0.00 | 0.00 | 38 | 1016.0 |